Location: Moscow
(30.9132°N, 94.8252°W)
Time: 07:37:49
(UTC+00:00)

ERS-1 - Pass Details

Date: 15 November 2025
Orbit: 737 x 784 km, 98.8° (Epoch: 13 December)

Event Time Altitude Azimuth Distance (km) Brightness Sun altitude
Rises 00:01:33 0° 161° (SSE) 3,257 7.7 -8.9°
Reaches altitude 10° 00:03:52 10° 159° (SSE) 2,331 7.0 -9.4°
Maximum altitude 00:09:00 73° 75° (ENE) 818 4.5 -10.4°
Drops below altitude 10° 00:14:07 10° 352° (N) 2,329 6.9 -11.5°
Sets 00:16:26 0° 350° (N) 3,253 7.7 -12.0°
